Chehalis, WA

9:02 AM PST on December 04, 2016 (GMT -0800)
Chehalis-Centralia

Weather History for KCLS - August, 2013

Change the Weather History Date:

Friday, August 16, 2013

  Actual Average (KOLM) Record (KOLM)
Temperature  
Mean Temperature 72 °F 64 °F  
Max Temperature 84 °F 78 °F 96 °F (1967)
Min Temperature 59 °F 51 °F 40 °F (1986)
Degree Days  
Heating Degree Days 0 2  
Month to date heating degree days 32  
Since 1 June heating degree days 300  
Since 1 July heating degree days 112  
Cooling Degree Days 6 2  
Month to date cooling degree days 32  
Year to date cooling degree days 89  
Since 1 June cooling degree days 86  
Growing Degree Days 22 (Base 50)    
Moisture  
Dew Point 62 °F    
Average Humidity 81    
Maximum Humidity 100    
Minimum Humidity 48    
Precipitation  
Precipitation 0.00 in 0.03 in 0.58 in (1995)
Month to date precipitation 0.34  
Year to date precipitation 27.00  
Sea Level Pressure  
Sea Level Pressure 30.01 in    
Wind  
Wind Speed 1 mph (NNW)    
Max Wind Speed 9 mph    
Max Gust Speed 16 mph    
Visibility 7 miles    
Events Fog    
T = Trace of Precipitation, MM = Missing Value Source: NWS Daily Summary

Daily Weather History Graph

Daily Weather History Graph

Search for Another Location

Airport or City:

Trip Planner

Search our weather history database for the weather conditions in past years. The results will help you decide how hot, cold, wet, or windy it might be!

Date:

Astronomy

Aug. 16, 2013 Rise Set
Actual Time 6:11 AM PDT 8:19 PM PDT
Civil Twilight 5:38 AM PDT 8:52 PM PDT
Nautical Twilight 4:57 AM PDT 9:33 PM PDT
Astronomical Twilight 4:11 AM PDT 10:18 PM PDT
Moon 4:51 PM PDT (8/16) 1:12 AM PDT (8/16)
Length of Visible Light 15h 13m
Length of Day
14h 08m
Waxing Gibbous, 76% of the Moon is Illuminated
Aug 16
Waxing Gibbous
Aug 20
Full
Aug 28
Last Quarter
Sep 5
New
Sep 12
First Quarter

Hourly Weather History & Observations

Time (PDT) Temp. Heat Index Dew Point Humidity Pressure Visibility Wind Dir Wind Speed Gust Speed Precip Events Conditions
12:15 AM 60.8 °F - 60.8 °F 100% 30.00 in 0.5 mi Calm Calm - N/A Fog Fog
12:35 AM 62.6 °F - 62.6 °F 100% 30.00 in 0.2 mi Calm Calm - N/A Fog Fog
12:55 AM 62.6 °F - 62.6 °F 100% 30.00 in 0.2 mi Calm Calm - N/A Fog Fog
1:15 AM 62.6 °F - 62.6 °F 100% 30.00 in 0.2 mi NNE 3.5 mph - N/A Fog Fog
1:35 AM 62.6 °F - 62.6 °F 100% 30.00 in 0.2 mi Calm Calm - N/A Fog Fog
1:55 AM 62.6 °F - 62.6 °F 100% 30.00 in 0.2 mi Calm Calm - N/A Fog Fog
2:15 AM 62.6 °F - 62.6 °F 100% 30.00 in 0.2 mi Calm Calm - N/A Fog Fog
2:35 AM 62.6 °F - 62.6 °F 100% 30.00 in 0.2 mi Calm Calm - N/A Fog Fog
2:55 AM 62.6 °F - 62.6 °F 100% 30.00 in 0.2 mi Calm Calm - N/A Fog Fog
3:15 AM 62.6 °F - 62.6 °F 100% 30.00 in 0.2 mi NE 3.5 mph - N/A Fog Fog
3:35 AM 62.6 °F - 62.6 °F 100% 30.00 in 0.2 mi North 3.5 mph - N/A Fog Fog
3:55 AM 60.8 °F - 60.8 °F 100% 30.00 in 0.2 mi Calm Calm - N/A Fog Fog
4:15 AM 62.6 °F - 62.6 °F 100% 30.00 in 0.2 mi Calm Calm - N/A Fog Fog
4:35 AM 62.6 °F - 62.6 °F 100% 30.00 in 0.2 mi Calm Calm - N/A Fog Fog
4:55 AM 62.6 °F - 62.6 °F 100% 30.00 in 2.5 mi North 3.5 mph - N/A   Overcast
5:15 AM 62.6 °F - 62.6 °F 100% 30.00 in 7.0 mi Calm Calm - N/A   Overcast
5:35 AM 62.6 °F - 62.6 °F 100% 30.01 in 1.5 mi Calm Calm - N/A   Overcast
5:55 AM 62.6 °F - 62.6 °F 100% 30.01 in 0.8 mi Calm Calm - N/A   Overcast
6:15 AM 62.6 °F - 62.6 °F 100% 30.01 in 5.0 mi Calm Calm - N/A   Overcast
6:35 AM 62.6 °F - 62.6 °F 100% 30.02 in 5.0 mi Calm Calm - N/A   Overcast
6:55 AM 62.6 °F - 62.6 °F 100% 30.02 in 3.0 mi Calm Calm - N/A   Overcast
7:15 AM 62.6 °F - 62.6 °F 100% 30.02 in 9.0 mi Calm Calm - N/A   Overcast
7:35 AM 62.6 °F - 62.6 °F 100% 30.02 in 8.0 mi NNE 4.6 mph - N/A   Overcast
7:55 AM 62.6 °F - 62.6 °F 100% 30.02 in 7.0 mi Calm Calm - N/A   Overcast
8:15 AM 62.6 °F - 62.6 °F 100% 30.02 in 5.0 mi Calm Calm - N/A   Overcast
8:35 AM 62.6 °F - 62.6 °F 100% 30.02 in 8.0 mi Calm Calm - N/A   Overcast
8:55 AM 64.4 °F - 62.6 °F 94% 30.02 in 7.0 mi NNE 3.5 mph - N/A   Overcast
9:15 AM 64.4 °F - 62.6 °F 94% 30.02 in 5.0 mi Calm Calm - N/A   Overcast
9:35 AM 64.4 °F - 62.6 °F 94% 30.02 in 4.0 mi Calm Calm - N/A   Overcast
9:55 AM 66.2 °F - 62.6 °F 88% 30.02 in 8.0 mi Calm Calm - N/A   Overcast
10:15 AM 66.2 °F - 62.6 °F 88% 30.03 in 10.0 mi Calm Calm - N/A   Overcast
10:35 AM 66.2 °F - 62.6 °F 88% 30.03 in 9.0 mi Calm Calm - N/A   Overcast
10:55 AM 68.0 °F - 62.6 °F 83% 30.03 in 10.0 mi Calm Calm - N/A   Overcast
11:15 AM 68.0 °F - 64.4 °F 88% 30.03 in 9.0 mi Calm Calm - N/A   Overcast
11:35 AM 68.0 °F - 64.4 °F 88% 30.03 in 10.0 mi Calm Calm - N/A   Overcast
11:55 AM 71.6 °F - 64.4 °F 78% 30.03 in 5.0 mi NNE 3.5 mph - N/A   Haze
12:15 PM 71.6 °F - 64.4 °F 78% 30.03 in 10.0 mi Calm Calm - N/A   Scattered Clouds
12:35 PM 75.2 °F - 64.4 °F 69% 30.02 in 10.0 mi ENE 4.6 mph - N/A   Partly Cloudy
12:55 PM 75.2 °F - 64.4 °F 69% 30.02 in 10.0 mi SE 3.5 mph - N/A   Partly Cloudy
1:15 PM 77.0 °F - 64.4 °F 65% 30.02 in 10.0 mi SSE 3.5 mph - N/A   Clear
1:35 PM 78.8 °F - 64.4 °F 61% 30.01 in 10.0 mi Calm Calm - N/A   Clear
1:55 PM 78.8 °F - 64.4 °F 61% 30.01 in 10.0 mi North 3.5 mph - N/A   Clear
2:15 PM 80.6 °F 82.3 °F 64.4 °F 58% 30.01 in 7.0 mi NNW 4.6 mph - N/A   Partly Cloudy
2:35 PM 80.6 °F 82.3 °F 64.4 °F 58% 30.00 in 10.0 mi Calm Calm - N/A   Scattered Clouds
2:55 PM 80.6 °F 81.8 °F 62.6 °F 54% 30.00 in 10.0 mi Calm Calm - N/A   Scattered Clouds
3:15 PM 82.4 °F 83.4 °F 62.6 °F 51% 29.99 in 10.0 mi Calm Calm - N/A   Scattered Clouds
3:35 PM 82.4 °F 83.4 °F 62.6 °F 51% 29.98 in 10.0 mi ENE 3.5 mph - N/A   Scattered Clouds
3:55 PM 82.4 °F 83.9 °F 64.4 °F 54% 29.98 in 10.0 mi NNW 5.8 mph - N/A   Scattered Clouds
4:15 PM 84.2 °F 85.6 °F 64.4 °F 51% 29.98 in 10.0 mi Calm Calm - N/A   Partly Cloudy
4:35 PM 82.4 °F 83.4 °F 62.6 °F 51% 29.98 in 10.0 mi Calm Calm - N/A   Scattered Clouds
4:55 PM 82.4 °F 83.4 °F 62.6 °F 51% 29.98 in 10.0 mi NW 5.8 mph - N/A   Scattered Clouds
5:15 PM 82.4 °F 82.9 °F 60.8 °F 48% 29.98 in 10.0 mi NW 5.8 mph - N/A   Mostly Cloudy
5:35 PM 80.6 °F 81.8 °F 62.6 °F 54% 29.98 in 10.0 mi NNW 9.2 mph - N/A   Mostly Cloudy
5:55 PM 80.6 °F 81.8 °F 62.6 °F 54% 29.99 in 10.0 mi NNW 5.8 mph 16.1 mph N/A   Mostly Cloudy
6:15 PM 77.0 °F - 62.6 °F 61% 29.98 in 10.0 mi NNW 4.6 mph - N/A   Scattered Clouds
6:35 PM 80.6 °F 81.8 °F 62.6 °F 54% 29.99 in 10.0 mi NNW 8.1 mph - N/A   Scattered Clouds
6:55 PM 78.8 °F - 62.6 °F 57% 29.99 in 10.0 mi NNW 8.1 mph - N/A   Overcast
7:15 PM 75.2 °F - 62.6 °F 65% 30.00 in 10.0 mi NW 3.5 mph - N/A   Partly Cloudy
7:35 PM 73.4 °F - 59.0 °F 61% 30.00 in 10.0 mi WNW 3.5 mph - N/A   Clear
7:55 PM 71.6 °F - 57.2 °F 60% 30.01 in 10.0 mi WNW 5.8 mph - N/A   Clear
8:15 PM 68.0 °F - 57.2 °F 68% 30.02 in 10.0 mi Calm Calm - N/A   Clear
8:35 PM 68.0 °F - 55.4 °F 64% 30.03 in 10.0 mi Calm Calm - N/A   Clear
8:55 PM 66.2 °F - 55.4 °F 68% 30.04 in 10.0 mi Calm Calm - N/A   Clear
9:15 PM 66.2 °F - 55.4 °F 68% 30.05 in 10.0 mi Calm Calm - N/A   Mostly Cloudy
9:35 PM 66.2 °F - 55.4 °F 68% 30.05 in 10.0 mi Calm Calm - N/A   Mostly Cloudy
9:55 PM 64.4 °F - 55.4 °F 73% 30.06 in 9.0 mi Calm Calm - N/A   Partly Cloudy
10:15 PM 62.6 °F - 57.2 °F 82% 30.06 in 10.0 mi Calm Calm - N/A   Clear
10:35 PM 62.6 °F - 57.2 °F 82% 30.06 in 9.0 mi Calm Calm - N/A   Scattered Clouds
10:55 PM 60.8 °F - 57.2 °F 88% 30.06 in 10.0 mi West 3.5 mph - N/A   Scattered Clouds
11:15 PM 59.0 °F - 57.2 °F 94% 30.06 in 10.0 mi WSW 3.5 mph - N/A   Mostly Cloudy
11:35 PM 59.0 °F - 57.2 °F 94% 30.06 in 10.0 mi Calm Calm - N/A   Overcast
11:55 PM 60.8 °F - 57.2 °F 88% 30.06 in 8.0 mi SW 3.5 mph - N/A   Overcast